Location: Forst
(46.9333°N, 15.4333°E)
Time: 14:42:59
(UTC+00:00)

Cosmos 1680 Rocket - Pass Details

Date: 01 December 2020
Orbit: 760 x 781 km, 74.1° (Epoch: 26 January)

Event Time Altitude Azimuth Distance (km) Brightness Sun altitude
Rises 17:42:17 0° 198° (SSW) 3,231 7.0 -25.0°
Reaches altitude 10° 17:44:39 10° 197° (SSW) 2,311 6.2 -25.4°
Enters shadow 17:49:50 83° 128° (SE) 788 3.4 -26.3°
